When you browse on this site, cookies collect data to enhance your experience and personalize the content and advertising you see.
Visit our Privacy Policy to learn more. By continuing to use the site, you agree to this use of cookies and data.
  • In Italy
  • List of Countries
  • For 7 days
  • Water Temperature
  • Satellite Maps
  • Weather Map
  • Weather Widgets
  • user-avatar
    Login

    Hourly Weather Abovyan

    Today, 18 January, Friday

    Time Temperature Precipitation Wind Pressure Humidity
    00:00 -4°C° 0.1 mm 3 mps 668 mmHg 63%
    01:00 -3°C° 0 mm 2 mps 668 mmHg 63%
    02:00 -4°C° 0 mm 2 mps 669 mmHg 62%
    03:00 -4°C° 0 mm 2 mps 669 mmHg 62%
    04:00 -4°C° 0 mm 2 mps 670 mmHg 61%
    05:00 -4°C° 0 mm 2 mps 670 mmHg 61%
    06:00 -5°C° 0 mm 2 mps 670 mmHg 61%
    07:00 -2°C° 0 mm 1 mps 671 mmHg 59%
    08:00 -2°C° 0 mm 1 mps 671 mmHg 57%
    09:00 -1°C° 0 mm 1 mps 672 mmHg 55%
    10:00 0°C° 0 mm 1 mps 672 mmHg 53%
    11:00 -1°C° 0 mm 2 mps 672 mmHg 52%
    12:00 +1°C° 0 mm 2 mps 672 mmHg 50%
    13:00 +1°C° 0 mm 2 mps 671 mmHg 50%
    14:00 +1°C° 0 mm 2 mps 671 mmHg 50%
    15:00 +2°C° 0 mm 1 mps 671 mmHg 50%
    16:00 +1°C° 0 mm 1 mps 672 mmHg 53%
    17:00 0°C° 0 mm 1 mps 672 mmHg 56%
    18:00 -3°C° 0 mm 0 mps 672 mmHg 59%
    19:00 -2°C° 0 mm 1 mps 673 mmHg 59%
    20:00 -2°C° 0 mm 1 mps 673 mmHg 59%
    21:00 -3°C° 0 mm 1 mps 673 mmHg 58%
    22:00 -3°C° 0 mm 1 mps 673 mmHg 58%
    23:00 -3°C° 0 mm 1 mps 674 mmHg 58%

    Tomorrow, 19 January, Saturday

    Time Temperature Precipitation Wind Pressure Humidity
    00:00 -3°C° 0 mm 1 mps 674 mmHg 58%
    01:00 -4°C° 0 mm 1 mps 674 mmHg 58%
    02:00 -4°C° 0 mm 1 mps 674 mmHg 57%
    03:00 -4°C° 0 mm 1 mps 674 mmHg 57%
    04:00 -4°C° 0 mm 1 mps 673 mmHg 57%
    05:00 -4°C° 0 mm 1 mps 673 mmHg 56%
    06:00 -4°C° 0 mm 1 mps 673 mmHg 56%
    07:00 -3°C° 0 mm 1 mps 673 mmHg 54%
    08:00 -2°C° 0 mm 1 mps 674 mmHg 51%
    09:00 -2°C° 0 mm 1 mps 674 mmHg 49%
    10:00 0°C° 0 mm 1 mps 673 mmHg 47%
    11:00 +1°C° 0 mm 1 mps 673 mmHg 45%
    12:00 +2°C° 0 mm 1 mps 673 mmHg 43%
    13:00 +2°C° 0 mm 1 mps 672 mmHg 43%
    14:00 +2°C° 0 mm 1 mps 672 mmHg 43%
    15:00 +3°C° 0 mm 1 mps 672 mmHg 42%
    16:00 +1°C° 0 mm 1 mps 672 mmHg 43%
    17:00 0°C° 0 mm 1 mps 672 mmHg 45%
    18:00 -1°C° 0 mm 1 mps 672 mmHg 46%
    19:00 -2°C° 0 mm 1 mps 672 mmHg 46%
    20:00 -2°C° 0 mm 1 mps 673 mmHg 45%
    21:00 -2°C° 0 mm 1 mps 673 mmHg 45%
    22:00 -3°C° 0 mm 1 mps 673 mmHg 45%
    23:00 -3°C° 0 mm 1 mps 673 mmHg 44%

    Day after tomorrow, 20 January, Sunday

    Time Temperature Precipitation Wind Pressure Humidity
    00:00 -3°C° 0 mm 1 mps 673 mmHg 44%
    01:00 -3°C° 0 mm 1 mps 673 mmHg 44%
    02:00 -2°C° 0 mm 1 mps 673 mmHg 44%
    03:00 -2°C° 0 mm 1 mps 673 mmHg 44%
    04:00 -2°C° 0 mm 1 mps 673 mmHg 44%
    05:00 -2°C° 0 mm 1 mps 673 mmHg 44%
    06:00 -2°C° 0 mm 1 mps 673 mmHg 43%
    07:00 -2°C° 0 mm 1 mps 674 mmHg 43%
    08:00 -1°C° 0 mm 1 mps 674 mmHg 42%
    09:00 0°C° 0 mm 1 mps 674 mmHg 41%
    10:00 +1°C° 0 mm 1 mps 674 mmHg 39%
    11:00 +2°C° 0 mm 1 mps 674 mmHg 37%
    12:00 +3°C° 0 mm 1 mps 673 mmHg 36%
    13:00 +3°C° 0 mm 1 mps 673 mmHg 36%
    14:00 +3°C° 0 mm 1 mps 673 mmHg 36%
    15:00 +3°C° 0 mm 1 mps 672 mmHg 36%
    16:00 +2°C° 0 mm 1 mps 673 mmHg 37%
    17:00 +1°C° 0 mm 1 mps 673 mmHg 38%
    18:00 -1°C° 0 mm 1 mps 673 mmHg 39%
    19:00 -1°C° 0 mm 1 mps 673 mmHg 39%
    20:00 -1°C° 0 mm 1 mps 674 mmHg 39%
    21:00 -1°C° 0 mm 1 mps 674 mmHg 39%
    22:00 -2°C° 0 mm 1 mps 674 mmHg 40%
    23:00 -2°C° 0 mm 1 mps 674 mmHg 40%

    21 January, Monday

    Time Temperature Precipitation Wind Pressure Humidity
    00:00 -2°C° 0 mm 1 mps 674 mmHg 41%
    01:00 -3°C° 0 mm 1 mps 674 mmHg 42%
    02:00 -3°C° 0 mm 1 mps 674 mmHg 42%
    03:00 -3°C° 0 mm 1 mps 674 mmHg 43%
    04:00 -3°C° 0 mm 1 mps 673 mmHg 43%
    05:00 -4°C° 0 mm 1 mps 673 mmHg 44%
    06:00 -4°C° 0 mm 1 mps 673 mmHg 45%
    07:00 -3°C° 0 mm 1 mps 673 mmHg 44%
    08:00 -2°C° 0 mm 1 mps 674 mmHg 43%
    09:00 -1°C° 0 mm 1 mps 674 mmHg 42%
    10:00 0°C° 0 mm 1 mps 673 mmHg 40%
    11:00 +1°C° 0 mm 1 mps 673 mmHg 39%
    12:00 +2°C° 0 mm 1 mps 672 mmHg 37%
    13:00 +2°C° 0 mm 1 mps 672 mmHg 37%
    14:00 +2°C° 0 mm 1 mps 672 mmHg 37%
    15:00 +2°C° 0 mm 1 mps 671 mmHg 37%
    16:00 +1°C° 0 mm 1 mps 671 mmHg 37%
    17:00 0°C° 0 mm 1 mps 671 mmHg 38%
    18:00 -2°C° 0 mm 1 mps 672 mmHg 39%
    19:00 -2°C° 0 mm 1 mps 672 mmHg 39%
    20:00 -2°C° 0 mm 1 mps 672 mmHg 39%
    21:00 -3°C° 0 mm 1 mps 672 mmHg 39%
    22:00 -3°C° 0 mm 1 mps 672 mmHg 41%
    23:00 -3°C° 0 mm 1 mps 672 mmHg 42%

    22 January, Tuesday

    Time Temperature Precipitation Wind Pressure Humidity
    00:00 -3°C° 0 mm 1 mps 672 mmHg 44%
    01:00 -3°C° 0 mm 1 mps 672 mmHg 44%
    02:00 -3°C° 0 mm 1 mps 672 mmHg 44%
    03:00 -4°C° 0 mm 1 mps 672 mmHg 45%
    04:00 -4°C° 0 mm 1 mps 671 mmHg 45%
    05:00 -4°C° 0 mm 1 mps 671 mmHg 45%
    06:00 -4°C° 0 mm 1 mps 671 mmHg 45%
    07:00 -3°C° 0 mm 1 mps 672 mmHg 45%
    08:00 -2°C° 0 mm 1 mps 672 mmHg 44%
    09:00 -1°C° 0 mm 1 mps 672 mmHg 44%
    10:00 0°C° 0 mm 1 mps 672 mmHg 43%
    11:00 +1°C° 0 mm 1 mps 671 mmHg 42%
    12:00 +2°C° 0 mm 1 mps 671 mmHg 41%
    13:00 +2°C° 0 mm 1 mps 670 mmHg 42%
    14:00 +3°C° 0 mm 1 mps 670 mmHg 42%
    15:00 +3°C° 0 mm 1 mps 670 mmHg 42%
    16:00 +2°C° 0 mm 1 mps 670 mmHg 44%
    17:00 0°C° 0 mm 1 mps 670 mmHg 46%
    18:00 -1°C° 0 mm 1 mps 670 mmHg 47%
    19:00 -1°C° 0 mm 1 mps 671 mmHg 48%
    20:00 -2°C° 0 mm 1 mps 671 mmHg 48%
    21:00 -2°C° 0 mm 1 mps 671 mmHg 49%
    22:00 -2°C° 0 mm 1 mps 671 mmHg 50%
    23:00 -2°C° 0 mm 1 mps 671 mmHg 51%

    23 January, Wednesday

    Time Temperature Precipitation Wind Pressure Humidity
    00:00 -3°C° 0 mm 1 mps 671 mmHg 52%
    01:00 -3°C° 0 mm 1 mps 671 mmHg 52%
    02:00 -3°C° 0 mm 1 mps 671 mmHg 53%
    03:00 -3°C° 0 mm 1 mps 671 mmHg 54%
    04:00 -3°C° 0 mm 1 mps 671 mmHg 54%
    05:00 -4°C° 0 mm 1 mps 671 mmHg 54%
    06:00 -4°C° 0 mm 1 mps 671 mmHg 54%
    07:00 -3°C° 0 mm 1 mps 671 mmHg 53%
    08:00 -2°C° 0 mm 1 mps 672 mmHg 51%
    09:00 -1°C° 0 mm 1 mps 672 mmHg 50%
    10:00 -2°C° 0 mm 2 mps 672 mmHg 48%
    11:00 -1°C° 0 mm 2 mps 672 mmHg 47%
    12:00 +1°C° 0 mm 2 mps 671 mmHg 46%
    13:00 +1°C° 0 mm 2 mps 671 mmHg 46%
    14:00 +1°C° 0 mm 2 mps 671 mmHg 46%
    15:00 +2°C° 0 mm 2 mps 671 mmHg 46%
    16:00 -1°C° 0 mm 2 mps 671 mmHg 48%
    17:00 -2°C° 0 mm 2 mps 671 mmHg 50%
    18:00 -3°C° 0 mm 2 mps 671 mmHg 51%
    19:00 -3°C° 0 mm 2 mps 672 mmHg 52%
    20:00 -4°C° 0 mm 2 mps 672 mmHg 52%
    21:00 -4°C° 0 mm 2 mps 672 mmHg 53%
    22:00 -4°C° 0 mm 2 mps 672 mmHg 54%
    23:00 -4°C° 0 mm 2 mps 672 mmHg 56%
    Show more